Location: Rompon
(44.7741°N, 4.7355°E)
Time: 10:02:41
(UTC+00:00)

Daily predictions for brighter satellites

Satellite Brightness Start Highest point End
(mag) Time Altitude Azimuth Time Altitude Azimuth Time Altitude Azimuth
Cosmos 2369 Rocket 3.7 17:02:49 10° WSW 17:08:02 37° NW 17:13:19 10° NNE
Cosmos 1850 Rocket 4.0 17:02:50 10° NNW 17:08:08 71° ENE 17:13:27 10° SSE
Cosmos 1939 Rocket 3.7 17:06:22 10° SE 17:09:49 29° ENE 17:13:15 10° N
Cosmos 2297 Rocket 3.4 17:05:38 10° N 17:09:57 22° NE 17:14:16 10° E
NOAA 12 4.2 17:07:36 10° SSE 17:12:53 89° WSW 17:18:14 10° NNW
COSMO-SKYMED 1 3.3 17:10:44 10° NNE 17:14:38 31° E 17:18:29 10° SSE
Cosmos 1452 Rocket 3.7 17:10:08 10° SSW 17:15:23 80° WNW 17:20:43 10° NNE
Okean O Rocket 1.9 17:12:13 10° S 17:16:35 73° WSW 17:20:58 10° NNW
Cosmos 1689 Rocket 3.2 17:15:01 10° NE 17:17:23 22° E 17:19:44 10° SSE
Aureole 3 Rocket 4.3 17:15:03 10° SE 17:17:45 19° E 17:20:59 10° NE
H-2A R/B 3.5 17:16:10 10° ESE 17:19:52 19° ENE 17:23:35 10° NNE
H-2A R/B 3.5 17:18:11 10° N 17:22:07 40° WNW 17:25:57 10° SW
Cosmos 1328 3.7 17:18:25 10° N 17:22:23 79° E 17:26:19 10° S
Cosmos 2098 Rocket 4.0 17:21:16 10° NNW 17:24:13 35° W 17:26:53 10° SSW
IRS-1C Rocket 4.3 17:19:42 10° SE 17:24:46 51° ENE 17:29:52 10° N
Cosmos 1356 Rocket 4.3 17:21:39 10° SSW 17:25:49 56° WNW 17:30:04 10° N
CORIOLIS 4.4 17:20:44 10° S 17:26:04 76° WSW 17:31:27 10° NNW
ADEOS Rocket 4.0 17:20:10 10° N 17:26:18 57° WNW 17:33:04 10° SSW
Cosmos 1340 4.1 17:24:00 10° NNE 17:26:43 19° ENE 17:29:27 10° ESE
CZ-4 R/B 2.3 17:24:20 10° ESE 17:27:34 25° ENE 17:30:47 10° NNE
Cosmos 1825 Rocket 3.6 17:24:17 10° N 17:28:43 62° E 17:33:06 10° SSE
ERS-2 2.4 17:25:47 10° N 17:29:25 71° WNW 17:33:02 10° SSW
BREEZE-M DEB (TANK) 4.5 17:27:11 10° W 17:30:43 51° N 17:42:44 10° ENE
YAOGAN 1 3.5 17:27:46 10° ESE 17:31:23 26° ENE 17:35:00 10° N
USA 281 4.0 17:25:42 10° S 17:32:08 58° WSW 17:38:37 10° NNW
Lacrosse 5 3.5 17:29:34 10° WNW 17:33:51 27° NNW 17:38:09 10° NE
Cosmos 2219 3.9 17:30:30 10° N 17:35:41 33° NE 17:40:52 10° ESE
Meteor 2-21 Rocket 4.4 17:30:17 10° N 17:36:27 66° E 17:42:31 10° SSE
CZ-4B R/B 2.1 17:37:35 10° N 17:40:47 53° WNW 17:43:52 10° SSW
SAR-Lupe-4 3.5 17:37:41 10° NNE 17:41:17 84° E 17:44:53 10° SSW
Cosmos 1400 Rocket 3.6 17:37:57 10° SSE 17:41:37 32° E 17:45:17 10° NNE
Cosmos 44 3.4 17:39:01 10° S 17:43:16 46° ESE 17:47:38 11° NE
USA 305 4.4 17:40:38 10° NW 17:44:11 24° N 17:46:51 14° NE
Okean-O 2.9 17:40:22 10° SE 17:44:35 45° ENE 17:48:50 10° N
Cosmos 1726 Rocket 3.5 17:40:20 10° S 17:44:35 61° E 17:48:54 10° NNE
Cosmos 1758 Rocket 4.0 17:41:36 10° NNW 17:46:00 66° W 17:50:18 10° S
USA 306 4.4 17:46:55 10° NW 17:50:28 25° N 17:52:49 16° NE
Aureole 3 2.9 17:54:12 10° S 17:57:27 46° E 18:00:23 10° NNE
Cosmos 1606 Rocket 3.8 17:54:38 10° SSW 17:58:58 74° W 18:03:23 10° N
Cosmos 1331 Rocket 4.0 17:53:51 10° SSW 17:59:01 85° WNW 18:04:12 10° NNE
FALCON 9 DEB 3.5 17:56:02 10° SSW 17:59:05 39° SE 17:59:55 32° E
Nadezhda 2 Rocket 4.5 17:56:10 10° N 18:02:36 81° E 18:09:02 10° S
SKYMED 2 3.6 17:58:27 10° N 18:02:50 81° WNW 18:07:10 10° SSW
Cosmos 2228 3.5 17:59:07 10° SSW 18:03:18 61° W 18:07:32 10° N
GENESIS II 4.3 17:59:43 10° SW 18:03:45 85° NW 18:07:02 15° NE
ATLAS 5 CENTAUR R/B 4.2 18:02:21 10° NW 18:04:40 14° NNW 18:07:09 10° N
SL-4 R/B 3.1 18:03:16 10° WNW 18:06:25 28° N 18:08:01 20° NE
FALCON 9 DEB 3.2 18:03:33 10° SW 18:06:39 49° SE 18:07:15 42° ESE
Cosmos 1244 Rocket 4.4 18:00:48 10° N 18:07:01 79° E 18:13:16 10° SSE
CZ-2C R/B 3.3 18:01:34 10° SSE 18:07:18 62° ENE 18:12:55 10° N
Cosmos 292 Rocket 3.7 18:03:23 10° SSW 18:08:10 90° SE 18:13:02 10° NNE
ARGOS 3.7 18:09:09 20° ESE 18:12:13 37° ENE 18:17:11 10° N
Cosmos 1346 Rocket 3.7 18:09:52 10° N 18:12:49 30° NE 18:12:49 30° NE
Cosmos 2227 Rocket 2.4 18:08:38 10° NNW 18:14:06 48° ENE 18:17:07 25° ESE
FALCON 9 DEB 3.0 18:11:31 10° SW 18:14:41 56° SE 18:15:00 53° ESE
Meteor 2-10 Rocket 3.9 18:09:56 10° SSE 18:14:55 40° E 18:19:45 10° NNE
SeaSat 1 2.8 18:14:54 29° ESE 18:16:49 43° NE 18:21:29 10° NNW
Cosmos 1892 2.8 18:14:28 10° N 18:18:15 50° ENE 18:19:18 38° SE
CZ-2D R/B 3.7 18:15:17 10° S 18:19:03 61° W 18:22:50 10° NNW
USA 215 3.9 18:17:28 25° ENE 18:20:42 40° NNE 18:26:44 10° NW
Cosmos 1656 3.7 18:16:29 10° S 18:21:52 55° ESE 18:26:21 15° NE
Cosmos 2263 Rocket 4.1 18:21:54 10° N 18:24:14 13° NE 18:24:14 13° NE
CSL-04 Rocket 3.7 18:19:34 10° SSE 18:25:03 64° ENE 18:30:31 10° N
Cosmos 968 Rocket 3.6 18:20:03 10° NNW 18:25:09 51° ENE 18:26:57 35° ESE
ATLAS 2AS CENTAUR R/B 4.1 18:19:17 10° NNW 18:25:17 24° NNE 18:27:53 20° NE
Cosmos 2058 Rocket 3.2 18:21:07 10° SSW 18:25:35 78° W 18:30:06 10° N
Cosmos 1302 Rocket 3.9 18:22:15 10° SSW 18:27:30 89° ESE 18:32:50 10° NNE
FALCON 9 DEB 2.9 18:26:11 10° SW 18:29:11 74° SSW 18:29:11 74° SSW
Cosmos 1300 4.2 18:26:31 10° SW 18:30:04 37° WNW 18:33:38 10° N
Cosmos 1486 Rocket 4.0 18:26:21 10° NNW 18:31:39 61° ENE 18:33:47 35° SE
USA 307 4.0 18:28:43 10° NW 18:32:31 30° NNE 18:32:53 29° NNE
Cosmos 1697 Rocket 3.3 18:28:36 10° S 18:32:53 35° SE 18:32:53 35° SE
Helios 1A Rocket 4.2 18:32:56 10° S 18:36:51 42° W 18:40:46 10° NNW
USA 308 4.0 18:33:29 10° NW 18:37:19 31° NNE 18:37:27 31° NNE
GEOS 3 Rocket 3.7 18:36:45 26° SSE 18:39:51 82° SW 18:45:17 10° NW
Cosmos 1503 Rocket 4.4 18:35:51 10° N 18:40:29 42° NE 18:40:29 42° NE
S3M 3.8 18:36:38 10° S 18:42:41 73° E 18:48:49 10° NNE
DMSP B5D1-3 4.4 18:38:26 10° NNE 18:43:36 89° ESE 18:48:45 10° SSW
CRYOSAT 2 4.2 18:40:20 10° N 18:45:14 80° E 18:50:05 10° S
Milstar 3 4.3 18:45:13 10° SW 18:50:05 21° S 18:51:54 19° SSE
Cosmos 1408 4.4 18:49:06 10° N 18:50:33 23° N 18:50:33 23° N
Cosmos 2297 Rocket 2.3 18:48:56 10° NNW 18:54:36 72° WSW 18:57:46 27° S
Cosmos 2058 3.3 18:54:35 10° NNW 18:57:58 58° NNW 18:57:58 58° NNW
H-2A R/B 2.4 18:53:21 10° S 18:58:41 70° WSW 19:04:09 10° NNW
MOS 1 Rocket 3.5 18:54:36 10° N 18:59:11 69° WNW 19:04:01 10° SSW
Cosmos 1340 4.5 18:59:02 10° NNW 19:02:23 31° W 19:05:45 10° SSW
CZ-4 R/B 3.4 18:59:12 10° SSW 19:02:31 26° W 19:05:50 10° NW
YAOGAN 1 4.3 19:03:31 10° SSW 19:07:22 31° W 19:11:15 10° NNW
Cosmos 1992 Rocket 4.2 19:05:07 10° SSW 19:09:12 56° SSW 19:09:12 56° SSW
Ariane Rocket 4.1 19:18:51 35° N 19:18:51 35° N 19:21:48 10° N
Lacrosse 5 3.7 19:14:29 10° NW 19:18:09 20° N 19:18:09 20° N
Cosmos 2219 4.3 19:14:33 10° NW 19:19:57 43° WSW 19:23:22 21° SSW
BREEZE-M R/B 4.2 19:17:48 10° WNW 19:22:38 66° NNE 19:23:15 63° NE
Cosmos 2082 3.9 19:25:16 10° NNW 19:30:18 68° NW 19:30:18 68° NW
Atlas Centaur 2 4.2 19:25:12 10° SW 19:31:14 26° S 19:31:14 26° S
CZ-4C R/B 4.0 19:32:23 10° NNW 19:37:16 27° NNE 19:37:16 27° NNE
SeaSat 1 4.1 19:54:42 29° WSW 19:54:42 29° WSW 19:58:43 10° NW
NOSS 3-4 (A) 4.4 19:48:37 10° NNW 19:53:45 48° N 19:53:45 48° N
NOSS 3-4 (C) 4.4 19:48:44 10° NNW 19:53:51 47° N 19:53:51 47° N
Cosmos 2227 Rocket 3.9 19:53:12 10° NW 19:57:53 27° WSW 19:59:01 26° WSW
USA 215 3.7 20:04:50 58° NW 20:04:50 58° NW 20:09:55 10° NW
Cosmos 2263 Rocket 4.2 20:04:05 10° NNW 20:05:56 21° NNW 20:05:56 21° NNW
ATLAS 2AS CENTAUR R/B 3.7 20:10:23 10° NW 20:15:19 41° NNW 20:15:19 41° NNW
